Date String (YYYY-MM-DD hh:mm:ss) UTC,Instrument flags,Ambient pressure (hPa),Sample flow (lpm),Bypass flow (lpm),Sample temperature (°C),Ambient temperature (°C),ASC tube jacket temperature (°C),LED temperature (°C),Box temperature (°C),Sample RH (%),Span deviation,Mass concentration (μg/m³),Mass concentration (μg/m³),Mass concentration (μg/m³)
DateTimeUTC,F1_M11,P_M11,Q1_M11,Q2_M11,T1_M11,T2_M11,T3_M11,T4_M11,T5_M11,U1_M11,ZSPAN_M11,X2_M11,X0_M11,X1_M11
2021-12-12 18:00:00,,0819.5,5.01,0.00,23.0,22.4,00.0,32.0,24.8,06.7,0000.0,0001.11,0002.05,0000.64
2021-12-12 18:01:00,,0819.6,4.99,0.00,23.0,22.4,00.0,32.0,24.8,06.7,0000.0,0001.09,0002.05,0000.63
2021-12-12 18:02:00,,0819.7,5.01,0.00,23.0,22.4,00.0,32.0,24.8,07.0,0000.0,0001.07,0002.06,0000.66
2021-12-12 18:03:00,,0819.6,5.01,0.00,23.1,22.4,00.0,32.0,24.9,07.2,0000.0,0001.09,0002.65,0000.71
2021-12-12 18:04:00,,0819.5,4.98,0.00,23.1,22.4,00.0,32.0,24.9,07.5,0000.0,0001.11,0002.93,0000.75
2021-12-12 18:05:00,,0819.5,5.00,0.00,23.1,22.4,00.0,32.0,24.9,08.3,0000.0,0001.22,0005.05,0000.87
2021-12-12 18:06:00,,0819.5,5.01,0.00,23.1,22.4,00.0,32.0,24.8,08.7,0000.0,0001.52,0005.87,0001.08
2021-12-12 18:07:00,,0819.5,5.00,0.00,23.0,22.4,00.0,32.0,24.8,08.8,0000.0,0001.87,0007.06,0001.35
2021-12-12 18:08:00,,0819.5,4.98,0.00,23.0,22.4,00.0,32.0,24.8,08.6,0000.0,0002.33,0007.87,0001.63
2021-12-12 18:09:00,,0819.5,5.00,0.00,23.1,22.4,00.0,32.0,24.8,08.3,0000.0,0002.69,0008.60,0001.84
2021-12-12 18:10:00,,0819.5,5.00,0.00,23.1,22.4,00.0,32.0,24.9,07.5,0000.0,0002.88,0009.14,0001.97
2021-12-12 18:11:00,,0819.5,5.01,0.00,23.1,22.4,00.0,32.0,24.9,07.2,0000.0,0002.98,0009.33,0002.03
2021-12-12 18:12:00,,0819.6,4.99,0.00,23.1,22.4,00.0,32.0,24.9,07.9,0000.0,0003.16,0009.58,0002.16
2021-12-12 18:13:00,,0819.6,5.00,0.00,23.1,22.4,00.0,32.0,24.8,08.4,0000.0,0003.31,0010.10,0002.33
2021-12-12 18:14:00,,0819.7,4.99,0.00,23.1,22.4,00.0,32.0,24.8,07.8,0000.0,0003.41,0010.44,0002.43
2021-12-12 18:15:00,,0819.6,5.00,0.00,23.1,22.4,00.0,32.0,24.8,07.1,0000.0,0003.41,0010.67,0002.43
2021-12-12 18:16:00,,0819.4,5.01,0.00,23.1,22.4,00.0,32.0,24.8,06.9,0000.0,0003.32,0009.46,0002.31
2021-12-12 18:17:00,,0819.3,4.99,0.00,23.1,22.4,00.0,32.0,24.8,06.3,0000.0,0003.13,0009.04,0002.08
2021-12-12 18:18:00,,0819.3,5.01,0.00,23.1,22.4,00.0,32.0,24.8,06.3,0000.0,0002.79,0008.31,0001.79
2021-12-12 18:19:00,,0819.2,5.00,0.00,23.1,22.5,00.0,32.0,24.9,06.3,0000.0,0002.29,0007.62,0001.48
2021-12-12 18:20:00,,0819.3,4.99,0.00,23.1,22.5,00.0,32.0,24.9,06.3,0000.0,0001.90,0006.52,0001.23
2021-12-12 18:21:00,,0819.3,5.03,0.00,23.1,22.5,00.0,32.1,24.9,06.3,0000.0,0001.68,0005.54,0001.09
2021-12-12 18:22:00,,0819.3,4.98,0.00,23.1,22.5,00.0,32.1,24.9,06.2,0000.0,0001.55,0005.15,0001.01
2021-12-12 18:23:00,,0819.1,5.01,0.00,23.2,22.5,00.0,32.1,25.0,06.2,0000.0,0001.30,0004.73,0000.86
2021-12-12 18:24:00,,0819.1,5.00,0.00,23.2,22.4,00.0,32.1,24.9,06.2,0000.0,0001.05,0003.74,0000.66
2021-12-12 18:25:00,,0819.1,4.99,0.00,23.2,22.5,00.0,32.1,24.9,06.2,0000.0,0000.83,0002.63,0000.47
2021-12-12 18:26:00,,0819.0,5.00,0.00,23.2,22.4,00.0,32.1,24.9,06.2,0000.0,0000.76,0002.48,0000.39
2021-12-12 18:27:00,,0819.2,5.01,0.00,23.2,22.4,00.0,32.1,25.0,06.2,0000.0,0000.74,0003.11,0000.34
2021-12-12 18:28:00,,0819.2,5.00,0.00,23.2,22.4,00.0,32.1,24.9,06.1,0000.0,0000.76,0003.14,0000.33
2021-12-12 18:29:00,,0819.1,5.00,0.00,23.2,22.4,00.0,32.1,24.9,06.2,0000.0,0000.75,0003.15,0000.34
2021-12-12 18:30:00,,0819.1,5.00,0.00,23.2,22.4,00.0,32.1,24.9,06.2,0000.0,0000.75,0003.16,0000.33
2021-12-12 18:31:00,,0819.2,5.00,0.00,23.2,22.4,00.0,32.1,24.9,06.2,0000.0,0000.77,0003.26,0000.33
2021-12-12 18:32:00,,0819.2,5.01,0.00,23.2,22.5,00.0,32.1,24.9,06.1,0000.0,0000.80,0003.32,0000.34
2021-12-12 18:33:00,,0819.1,4.99,0.00,23.2,22.5,00.0,32.1,24.9,06.1,0000.0,0000.82,0003.36,0000.34
2021-12-12 18:34:00,,0819.0,4.99,0.00,23.2,22.5,00.0,32.2,24.9,06.2,0000.0,0000.80,0003.22,0000.34
2021-12-12 18:35:00,,0819.0,5.01,0.00,23.2,22.5,00.0,32.2,24.9,06.2,0000.0,0000.74,0002.95,0000.34
2021-12-12 18:36:00,,0819.1,5.01,0.00,23.2,22.5,00.0,32.2,24.9,06.1,0000.0,0000.68,0002.69,0000.34
2021-12-12 18:37:00,,0819.2,5.01,0.00,23.2,22.5,00.0,32.2,24.9,06.1,0000.0,0000.62,0001.86,0000.34
2021-12-12 18:38:00,,0819.0,4.99,0.00,23.2,22.5,00.0,32.2,24.9,06.2,0000.0,0000.56,0001.38,0000.33
2021-12-12 18:39:00,,0819.0,5.01,0.00,23.2,22.5,00.0,32.2,25.0,06.2,0000.0,0000.56,0002.09,0000.33
2021-12-12 18:40:00,,0818.9,4.99,0.00,23.2,22.5,00.0,32.2,25.0,06.2,0000.0,0000.58,0002.46,0000.33
2021-12-12 18:41:00,,0818.8,5.02,0.00,23.2,22.5,00.0,32.2,25.0,06.2,0000.0,0000.61,0005.18,0000.34
2021-12-12 18:42:00,,0819.2,4.99,0.00,23.2,22.5,00.0,32.2,25.0,06.1,0000.0,0000.67,0006.46,0000.34
2021-12-12 18:43:00,,0819.1,5.02,0.00,23.2,22.6,00.0,32.2,25.0,06.2,0000.0,0000.69,0007.35,0000.33
2021-12-12 18:44:00,,0819.2,4.99,0.00,23.2,22.6,00.0,32.2,25.0,06.1,0000.0,0000.72,0007.48,0000.34
2021-12-12 18:45:00,,0819.3,4.99,0.00,23.2,22.5,00.0,32.2,25.0,06.1,0000.0,0000.78,0007.57,0000.34
2021-12-12 18:46:00,,0819.2,5.01,0.00,23.3,22.5,00.0,32.2,25.0,06.0,0000.0,0000.78,0007.59,0000.33
2021-12-12 18:47:00,,0819.3,5.00,0.00,23.3,22.5,00.0,32.2,25.0,06.1,0000.0,0000.78,0007.85,0000.33
2021-12-12 18:48:00,,0819.2,5.00,0.00,23.3,22.5,00.0,32.2,25.0,06.0,0000.0,0000.82,0008.12,0000.34
2021-12-12 18:49:00,,0819.2,5.01,0.00,23.3,22.6,00.0,32.3,25.1,06.1,0000.0,0000.83,0008.01,0000.34
2021-12-12 18:50:00,,0819.1,4.99,0.00,23.3,22.6,00.0,32.3,25.0,06.0,0000.0,0000.82,0007.62,0000.35
2021-12-12 18:51:00,,0819.0,5.01,0.00,23.3,22.6,00.0,32.3,25.0,06.0,0000.0,0000.81,0007.37,0000.34
2021-12-12 18:52:00,,0819.2,5.01,0.00,23.3,22.6,00.0,32.3,25.1,06.0,0000.0,0000.78,0004.72,0000.34
2021-12-12 18:53:00,,0819.1,5.01,0.00,23.3,22.7,00.0,32.3,25.1,05.9,0000.0,0000.70,0003.58,0000.34
2021-12-12 18:54:00,,0819.1,5.00,0.00,23.3,22.7,00.0,32.3,25.1,06.0,0000.0,0000.71,0002.72,0000.36
2021-12-12 18:55:00,,0819.2,5.00,0.00,23.3,22.7,00.0,32.3,25.1,05.9,0000.0,0000.70,0002.76,0000.35
2021-12-12 18:56:00,,0819.4,5.00,0.00,23.3,22.7,00.0,32.3,25.1,05.9,0000.0,0000.68,0002.88,0000.35
2021-12-12 18:57:00,,0819.3,4.99,0.00,23.3,22.7,00.0,32.3,25.1,05.9,0000.0,0000.67,0002.99,0000.36
2021-12-12 18:58:00,,0819.4,5.00,0.00,23.3,22.7,00.0,32.4,25.1,05.9,0000.0,0000.68,0002.54,0000.36
2021-12-12 18:59:00,,0819.5,5.00,0.00,23.3,22.7,00.0,32.4,25.1,05.9,0000.0,0000.73,0002.35,0000.36
